THORAD DELTA 1 DEB, 9730

Orbit data source: Space-Track

THORAD DELTA 1 DEB, 9730 is space debris in SSO originally from a launch on Fri, 15 Nov 1974 UTC launched from the Air Force Western Test Range (AFWTR). Debris objects in space refer to the collection of defunct objects orbiting the Earth. Examples of debris include non-operational satellites, rocket bodies, and fragments generated from explosions, collisions, or faulty payload assembly.

Loading next visibility...
Identifier
9730, 1974-089DZ
Orbit
SSO
Country
Flag of USUS
Related business
Manufacturer
Unknown
Mission
Spacecraft
Bus & Motor
Unknown
Mass
Unknown
Launch date (UTC)
1974-11-15 (51 years ago)
Launch vehicle
Unknown
Launch site
Air Force Western Test Range (AFWTR)
Object type
Payload
Rocket body
Debris
Shape & HBR
Unknown shape, 0.1 m
Radar Cross Section
Small (<0.1 m²)

Expand to show TLE details & history
Last TLE update: 1 day ago

TLE from 1 day ago
0 THORAD DELTA 1 DEB
1  9730U 74089DZ  25338.23431367  .00005400  00000-0  11114-1 0  9995
2  9730 101.7593 238.6514 0057513 152.5552 358.4373 13.32593271417148
Epoch: 2025-12-04T05:37Z
TLE epoch observation values (Epoch: 2025-12-04T05:37:24.701Z)
Latitude
28.40587°
Longitude
-92.56419°
Altitude
1,097.082 km
Speed
7.327 km/s
True Right ascension
04h 20m 19s
True Declination
28° 16' 07"
Sunlit
Object was in full shadow at epoch
Visualization orbit readout
Latitude
Unknown
Longitude
Unknown
Altitude
Unknown
Speed
Unknown
Apparent Right ascension
Unknown
Apparent Declination
Unknown
Sunlit
N/A
Visualization observer readout
Local Sidereal Time
13:08:28
Azimuth
Unknown
Elevation
Unknown
Doppler factor
Unknown
Orbital elements
Apogee altitude
1,177.645 km
Perigee altitude
1,091.231 km
Semi-major axis
7,512.575 km
Eccentricity
0.00575
Inclination
101.7593°
RAAN
238.6514°
Arg. of periapsis
152.5552°
True anomaly
358.4192°
Mean anomaly
358.4373°
Eccentric anomaly
358.42826°
Mean motion
3.33319 °/min
Orbital period
108 mins
BSTAR
0.011114

Documentation

Showing up to 5 results
|